Weather Roundup
Issued by NWS Chicago, IL

Home | Current Version | Previous Version | Graphics & Text | Print | Product List | Glossary On
Versions: 1 2 3 4 5 6 7 8 9 10 11 12 13 14 15 16 17 18 19 20 21 22 23 24 25 26 27 28 29 30 31 32 33 34 35 36 37 38 39 40 41 42 43 44 45 46 47 48 49 50
000
NZUS59 KLOT 301308
HRRLOT

CHICAGO AREA WEATHER ROUNDUP
NATIONAL WEATHER SERVICE CHICAGO/ROMEOVILLE IL
800 AM CDT SUN APR 30 2017

NOTE: "FAIR" INDICATES FEW OR NO CLOUDS BELOW 12,000 FEET WITH NO
SIGNIFICANT WEATHER AND/OR OBSTRUCTIONS TO VISIBILITY.

* THESE STATIONS ARE NOT UNDER NWS QUALITY CONTROL. THEY ALSO MAY NOT
  REPORT WEATHER SUCH AS PRECIPITATION OR FOG.

ILZ005-006-012>014-019>023-301400-
NORTHEAST ILLINOIS

CITY           SKY/WX    TMP DP  RH WIND       PRES   REMARKS
OHARE          LGT RAIN  43  41  93 NE13      29.84F FOG
MIDWAY         LGT RAIN  45  43  93 NE20      29.85F
AURORA         LGT RAIN  43  42  97 NE21G28   29.81F
LANSING*       RAIN      45  45 100 NE8       29.85F
JOLIET*        RAIN      45  45  99 NE12G17   29.80F
WAUKEGAN       LGT RAIN  41  41 100 NE13G22   29.88F FOG
DUPAGE AIRPORT LGT RAIN  42  42 100 NE17      29.83F
WHEELING       LGT RAIN  42  42 100 NE10G23   29.89F
KANKAKEE*      DRIZZLE   48  47  97 CALM      29.80F
MORRIS*        LGT RAIN  44  43  96 NE10G17   29.78F
LEWIS AIRPORT* LGT RAIN  43  43 100 NE15      29.80F
NORTHERLY ISL    N/A     43  42  97 NE20        N/A
$$

WIZ051-052-058>065-066-070>072-301400-
SOUTHEAST WISCONSIN

CITY           SKY/WX    TMP DP  RH WIND       PRES   REMARKS
MILWAUKEE      LGT RAIN  42  41  96 NE16      29.95F VSB 3/4
KENOSHA*       LGT RAIN  41  39  93 NE20G26   29.91F FOG
RACINE*        CLOUDY    41  39  93 NE16      29.94F FOG
WAUKESHA       LGT RAIN  37  37 100 NE17G23   29.96F VSB 1
WEST BEND      LGT RAIN  37  37 100 E17G30    29.96F
$$

INZ001>003-010>013-019-020-301400-
NORTHWEST INDIANA

CITY           SKY/WX    TMP DP  RH WIND       PRES   REMARKS
GARY*          LGT RAIN  46  45  93 N7        29.87F
MICHIGAN CITY* NOT AVBL
RENSSELAER*    NOT AVBL
VALPARAISO     RAIN      48  46  93 E12       29.86F FOG
$$

LMZ740>746-301400-
SOUTHERN LAKE MICHIGAN

STATION/POSITION TIME  SKY/WX   TEMP WIND        PRES    VSBY
                                AIR  DIR/SP/G
                 (UTC)          (F)  (DEG/KT/KT) (MB)    (MI)
HARRISON CRIB    1230            43   40/ 20/ 22   N/A
BURNHAM HARBOR   1300            43   40/ 17/ 18   N/A
CALUMET HARBOR   1242            44   20/ 12/ 16 1011.1F
BURNS HARBOR     1240            47   60/ 10/ 11 1012.2F
MICHIGAN CITY    1240            46   40/  8/  9   N/A
$$

ABBREVIATIONS USED IN REMARKS
   TC - TEMPERATURE IN CELSIUS
  WCI - WIND CHILL INDEX
   HX - HEAT INDEX
  VSB - VISIBILITY
$$




USA.gov is the U.S. government's official web portal to all federal, state and local government web resources and services.